EA3CH Weather Reports


Display with metric or nautical units.
time (UTC)temp
F
wind
direction
speed
MPH
gust
MPH
rain 1hr
in
rain 24hr
in
rain mn
in
humidity
%
barometer
mb
20260506150006 62 105 2.0 6.0 0.00 0.24 0.01 53 1010.8
20260506144506 64 84 2.0 7.0 0.00 0.37 0.01 50 1010.7
20260506143006 64 84 2.0 6.0 0.00 0.38 0.01 50 1010.9
20260506141506 64 79 2.0 6.0 0.00 0.38 0.01 50 1011.1
20260506124505 62 70 2.0 10.0 0.00 0.39 0.01 61 1011.7
20260506121506 62 68 2.0 8.0 0.00 0.39 0.01 60 1011.9
20260506113009 58 75 1.0 4.0 0.00 0.39 0.01 78 1012.1
20260506111506 54 76 2.0 5.0 0.00 0.39 0.01 89 1012.1
20260506104505 55 74 2.0 6.0 0.00 0.39 0.01 89 1012.1
20260506103006 55 72 1.0 5.0 0.00 0.39 0.01 88 1012.3
20260506093006 51 80 1.0 4.0 0.00 0.39 0.01 87 1012.3
20260506091506 50 74 1.0 5.0 0.00 0.39 0.01 87 1012.3
20260506090006 50 56 0.0 3.0 0.00 0.39 0.01 87 1012.4
20260506084506 49 89 0.0 6.0 0.00 0.39 0.01 88 1012.2
20260506083006 48 0 0.0 0.0 0.00 0.39 0.01 88 1012.2
20260506081506 47 0 0.0 0.0 0.00 0.39 0.01 88 1012.1
20260506073005 46 66 0.0 3.0 0.00 0.39 0.01 89 1011.8
20260506071505 45 65 0.0 4.0 0.00 0.39 0.01 89 1011.9
20260506044505 43 0 0.0 0.0 0.00 0.39 0.01 89 1010.9
20260506043006 43 0 0.0 0.0 0.00 0.39 0.01 89 1010.9
20260506041506 43 55 0.0 4.0 0.00 0.39 0.01 89 1010.7
20260506034505 42 0 0.0 0.0 0.00 0.39 0.01 89 1010.7
20260506024505 43 0 0.0 0.0 0.00 0.39 0.01 89 1010.8
20260506021505 44 0 0.0 0.0 0.01 0.39 0.01 89 1010.8
20260506011505 45 0 0.0 0.0 0.00 0.39 0.00 89 1010.7
20260506010006 45 0 0.0 0.0 0.00 0.39 0.00 89 1010.9
20260506004505 45 0 0.0 0.0 0.00 0.39 0.00 89 1011.0
20260506003005 45 0 0.0 0.0 0.00 0.39 0.00 89 1010.9
20260506001505 45 0 0.0 0.0 0.00 0.39 0.00 89 1011.0
20260506000005 45 0 0.0 0.0 0.00 0.39 0.00 88 1011.1
20260505233005 44 0 0.0 0.0 0.00 0.39 0.00 88 1011.1
20260505231505 45 0 0.0 0.0 0.00 0.39 0.00 88 1011.1
20260505214505 45 0 0.0 0.0 0.10 0.38 0.38 88 1011.7
20260505213005 45 130 0.0 1.0 0.09 0.37 0.37 88 1011.7
20260505204505 46 0 0.0 0.0 0.00 0.28 0.28 88 1011.3
20260505193005 48 266 0.0 1.0 0.03 0.51 0.28 88 1010.3
20260505190005 48 259 0.0 3.0 0.06 0.51 0.28 88 1010.6
20260505174505 49 243 0.0 1.0 0.02 0.45 0.21 88 1010.5
20260505171505 50 261 2.0 5.0 0.02 0.45 0.21 88 1010.6
20260505170005 50 255 1.0 4.0 0.01 0.43 0.20 88 1010.7
20260505163008 51 253 0.0 4.0 0.02 0.43 0.19 88 1010.2